Regional Weather Roundup
Issued by NWS

Home | Current Version | Previous Version | Graphics & Text | Print | Product List | Glossary On
Versions: 1 2 3 4 5 6 7 8 9 10 11 12 13 14 15 16 17 18 19 20 21 22 23 24 25 26 27 28 29 30 31 32 33 34 35 36 37 38 39 40 41 42 43 44 45 46 47 48 49 50
000
ASUS43 KFSD 221302
RWRSD

WEATHER ROUNDUP FOR SOUTH DAKOTA
NATIONAL WEATHER SERVICE SIOUX FALLS SD
800 AM CDT SUN OCT 22 2017

NOTE: "FAIR" INDICATES FEW OR NO CLOUDS BELOW 12,000 FEET WITH NO
SIGNIFICANT WEATHER AND/OR OBSTRUCTIONS TO VISIBILITY.


SDZ001>005-009-010-012>017-221400-
NORTHWEST AND NORTH CENTRAL SOUTH DAKOTA

CITY           SKY/WX    TMP DP  RH WIND       PRES   REMARKS
BUFFALO          N/A     34  18  52 W12       29.82S WCI  25
MOBRIDGE       CLEAR     36  28  73 S9        29.91R
$$

SDZ012>016-024>037-041>051-057-063-072>074-221400-
SOUTHWEST AND SOUTH CENTRAL SOUTH DAKOTA

CITY           SKY/WX    TMP DP  RH WIND       PRES   REMARKS
RAPID CTY ARPT CLOUDY    26  16  65 CALM      29.95F
PIERRE         CLEAR     34  27  75 SW3       29.96S
CUSTER         CLOUDY    34  15  46 W5        29.99R WCI  30
ELLSWORTH AFB  CLOUDY    31  16  54 SW3       29.94F
PHILIP         CLEAR     26  23  88 W5        29.98F WCI  20
PINE RIDGE     CLEAR     29  19  66 W5        30.01F WCI  24
SPEARFISH      FAIR      45  14  29 W7        29.92F
WINNER         FAIR      40  27  59 SW13      30.01S
$$

SDZ004>011-016>023-039-040-221400-
NORTHEAST SOUTH DAKOTA

CITY           SKY/WX    TMP DP  RH WIND       PRES   REMARKS
ABERDEEN       CLEAR     30  28  92 SW8       29.96R WCI  22
WATERTOWN      CLEAR     33  31  92 S7        29.98R WCI  27
BROOKINGS      CLEAR     36  31  82 S6        30.01R
SISSETON         N/A     42  33  70 SW8       29.93R
$$

SDZ017-020-022-023-036>040-048>070-221400-
SOUTHEAST SOUTH DAKOTA

CITY           SKY/WX    TMP DP  RH WIND       PRES   REMARKS
SIOUX FALLS    PTCLDY    38  33  82 W6        30.04R
HURON          CLEAR     37  31  78 SW9       30.01R
CHAMBERLAIN    CLEAR     33  30  88 CALM      30.02R
MITCHELL       CLEAR     40  30  67 SW9       30.04R
YANKTON        CLEAR     36  34  92 CALM      30.06S
$$

ABBREVIATIONS USED IN REMARKS
   TC - TEMPERATURE IN CELSIUS
  WCI - WIND CHILL INDEX
   HX - HEAT INDEX
  VSB - VISIBILITY




USA.gov is the U.S. government's official web portal to all federal, state and local government web resources and services.